• In Deutschland
  • Länderverzeichnis
  • Für 7 Tage
  • Wassertemperatur
  • Satellitenkarten
  • Wetterkarte
  • Widgets
  • user-avatar
    Anmelden

    Stündliche Wetter Zambrów

    Heute, 11 Dezember, Montag

    Zeit Temperatur Niederschläge Wind Luftdruck Luftfeuchtigkeit
    00:00 -3°C° 0 mm 7 m/S 734 mmHg 68%
    01:00 -3°C° 0 mm 6 m/S 734 mmHg 62%
    02:00 -3°C° 0,2 mm 6 m/S 734 mmHg 66%
    03:00 -3°C° 0,2 mm 6 m/S 733 mmHg 71%
    04:00 -2°C° 0,2 mm 6 m/S 733 mmHg 75%
    05:00 -2°C° 0,1 mm 6 m/S 733 mmHg 75%
    06:00 -2°C° 0,1 mm 6 m/S 733 mmHg 74%
    07:00 -1°C° 0,1 mm 6 m/S 733 mmHg 74%
    08:00 -1°C° 0,4 mm 6 m/S 734 mmHg 75%
    09:00 -1°C° 0,4 mm 6 m/S 734 mmHg 76%
    10:00 +1°C° 0,4 mm 5 m/S 734 mmHg 78%
    11:00 +1°C° 0,1 mm 5 m/S 734 mmHg 79%
    12:00 +1°C° 0,1 mm 5 m/S 735 mmHg 79%
    13:00 +3°C° 0,1 mm 4 m/S 735 mmHg 80%
    14:00 +1°C° 0 mm 4 m/S 735 mmHg 82%
    15:00 +1°C° 0 mm 4 m/S 735 mmHg 84%
    16:00 0°C° 0 mm 4 m/S 735 mmHg 86%
    17:00 0°C° 0 mm 4 m/S 735 mmHg 87%
    18:00 0°C° 0 mm 5 m/S 735 mmHg 88%
    19:00 +1°C° 0 mm 5 m/S 735 mmHg 89%
    20:00 +1°C° 0 mm 5 m/S 734 mmHg 88%
    21:00 +2°C° 0 mm 6 m/S 734 mmHg 88%
    22:00 +3°C° 0 mm 6 m/S 734 mmHg 88%
    23:00 +4°C° 0 mm 6 m/S 734 mmHg 87%

    Morgen, 12 Dezember, Dienstag

    Zeit Temperatur Niederschläge Wind Luftdruck Luftfeuchtigkeit
    00:00 +4°C° 0 mm 7 m/S 734 mmHg 87%
    01:00 +4°C° 0 mm 7 m/S 733 mmHg 86%
    02:00 +5°C° 0 mm 7 m/S 733 mmHg 85%
    03:00 +5°C° 0 mm 7 m/S 734 mmHg 84%
    04:00 +5°C° 0 mm 7 m/S 734 mmHg 83%
    05:00 +6°C° 0 mm 7 m/S 734 mmHg 83%
    06:00 +6°C° 0 mm 7 m/S 734 mmHg 83%
    07:00 +6°C° 0 mm 7 m/S 735 mmHg 82%
    08:00 +8°C° 0 mm 7 m/S 735 mmHg 83%
    09:00 +8°C° 0 mm 6 m/S 736 mmHg 84%
    10:00 +8°C° 0 mm 6 m/S 736 mmHg 84%
    11:00 +8°C° 0 mm 6 m/S 737 mmHg 83%
    12:00 +8°C° 0 mm 6 m/S 737 mmHg 82%
    13:00 +8°C° 0 mm 6 m/S 737 mmHg 80%
    14:00 +7°C° 0 mm 6 m/S 738 mmHg 78%
    15:00 +7°C° 0 mm 6 m/S 739 mmHg 75%
    16:00 +5°C° 0 mm 6 m/S 739 mmHg 72%
    17:00 +4°C° 0 mm 6 m/S 740 mmHg 71%
    18:00 +4°C° 0 mm 7 m/S 741 mmHg 69%
    19:00 +3°C° 0 mm 7 m/S 741 mmHg 68%
    20:00 +3°C° 0 mm 7 m/S 742 mmHg 68%
    21:00 +3°C° 0 mm 7 m/S 743 mmHg 68%
    22:00 +2°C° 0 mm 7 m/S 743 mmHg 68%
    23:00 +2°C° 0 mm 7 m/S 744 mmHg 68%

    übermorgen, 13 Dezember, Mittwoch

    Zeit Temperatur Niederschläge Wind Luftdruck Luftfeuchtigkeit
    00:00 +2°C° 0 mm 7 m/S 744 mmHg 68%
    01:00 0°C° 0 mm 7 m/S 745 mmHg 68%
    02:00 0°C° 0 mm 7 m/S 745 mmHg 69%
    03:00 0°C° 0 mm 7 m/S 745 mmHg 71%
    04:00 -1°C° 0 mm 7 m/S 746 mmHg 72%
    05:00 -1°C° 0 mm 6 m/S 746 mmHg 74%
    06:00 -1°C° 0 mm 6 m/S 747 mmHg 76%
    07:00 -1°C° 0 mm 5 m/S 748 mmHg 78%
    08:00 -1°C° 0 mm 5 m/S 748 mmHg 78%
    09:00 -1°C° 0 mm 5 m/S 749 mmHg 78%
    10:00 -1°C° 0 mm 5 m/S 749 mmHg 78%
    11:00 0°C° 0 mm 5 m/S 749 mmHg 77%
    12:00 0°C° 0 mm 5 m/S 749 mmHg 76%
    13:00 0°C° 0 mm 4 m/S 749 mmHg 76%
    14:00 0°C° 0 mm 4 m/S 749 mmHg 79%
    15:00 -1°C° 0 mm 4 m/S 749 mmHg 83%
    16:00 -1°C° 0 mm 3 m/S 749 mmHg 87%
    17:00 -2°C° 0 mm 4 m/S 749 mmHg 86%
    18:00 -2°C° 0 mm 4 m/S 748 mmHg 86%
    19:00 -2°C° 0 mm 4 m/S 748 mmHg 85%
    20:00 -2°C° 0 mm 4 m/S 748 mmHg 84%
    21:00 -2°C° 0 mm 5 m/S 747 mmHg 82%
    22:00 -2°C° 0 mm 5 m/S 747 mmHg 81%
    23:00 -2°C° 0 mm 5 m/S 746 mmHg 79%

    14 Dezember, Donnerstag

    Zeit Temperatur Niederschläge Wind Luftdruck Luftfeuchtigkeit
    00:00 -3°C° 0 mm 6 m/S 746 mmHg 78%
    01:00 -3°C° 0 mm 6 m/S 745 mmHg 77%
    02:00 -3°C° 0 mm 6 m/S 744 mmHg 75%
    03:00 -3°C° 0 mm 6 m/S 743 mmHg 73%
    04:00 -2°C° 0 mm 6 m/S 743 mmHg 71%
    05:00 -2°C° 0 mm 7 m/S 742 mmHg 70%
    06:00 -2°C° 0 mm 7 m/S 742 mmHg 69%
    07:00 -2°C° 0 mm 7 m/S 741 mmHg 68%
    08:00 -2°C° 0 mm 7 m/S 741 mmHg 67%
    09:00 -1°C° 0 mm 7 m/S 740 mmHg 66%
    10:00 -1°C° 0 mm 7 m/S 740 mmHg 65%
    11:00 0°C° 0 mm 7 m/S 739 mmHg 64%
    12:00 0°C° 0 mm 7 m/S 739 mmHg 62%
    13:00 +2°C° 0 mm 6 m/S 739 mmHg 61%
    14:00 +1°C° 0,1 mm 6 m/S 738 mmHg 65%
    15:00 +1°C° 0,1 mm 6 m/S 738 mmHg 69%
    16:00 0°C° 0,1 mm 5 m/S 738 mmHg 73%
    17:00 0°C° 0,4 mm 5 m/S 737 mmHg 76%
    18:00 0°C° 0,4 mm 5 m/S 737 mmHg 80%
    19:00 0°C° 0,4 mm 5 m/S 737 mmHg 83%
    20:00 0°C° 0,2 mm 5 m/S 736 mmHg 83%
    21:00 0°C° 0,2 mm 5 m/S 736 mmHg 84%
    22:00 0°C° 0,2 mm 5 m/S 735 mmHg 84%
    23:00 0°C° 0 mm 5 m/S 734 mmHg 85%

    15 Dezember, Freitag

    Zeit Temperatur Niederschläge Wind Luftdruck Luftfeuchtigkeit
    00:00 0°C° 0 mm 5 m/S 733 mmHg 86%
    01:00 0°C° 0 mm 5 m/S 733 mmHg 87%
    02:00 0°C° 0,2 mm 7 m/S 733 mmHg 85%
    03:00 0°C° 0,2 mm 8 m/S 733 mmHg 83%
    04:00 +1°C° 0,2 mm 9 m/S 732 mmHg 81%
    05:00 0°C° 0 mm 8 m/S 733 mmHg 80%
    06:00 -1°C° 0 mm 7 m/S 734 mmHg 79%
    07:00 0°C° 0 mm 5 m/S 735 mmHg 78%
    08:00 -1°C° 0 mm 6 m/S 736 mmHg 79%
    09:00 -1°C° 0 mm 6 m/S 737 mmHg 80%
    10:00 -1°C° 0 mm 6 m/S 737 mmHg 81%
    11:00 -1°C° 0 mm 6 m/S 738 mmHg 80%
    12:00 0°C° 0 mm 5 m/S 738 mmHg 78%
    13:00 +1°C° 0 mm 5 m/S 738 mmHg 76%
    14:00 0°C° 0 mm 4 m/S 738 mmHg 79%
    15:00 -1°C° 0 mm 4 m/S 738 mmHg 82%
    16:00 -1°C° 0 mm 3 m/S 738 mmHg 85%
    17:00 -1°C° 0 mm 3 m/S 739 mmHg 86%
    18:00 -1°C° 0 mm 3 m/S 739 mmHg 86%
    19:00 -1°C° 0 mm 3 m/S 739 mmHg 86%
    20:00 -1°C° 0 mm 3 m/S 739 mmHg 86%
    21:00 -1°C° 0 mm 2 m/S 739 mmHg 86%
    22:00 -1°C° 0 mm 2 m/S 739 mmHg 87%
    23:00 -1°C° 0 mm 2 m/S 738 mmHg 87%

    16 Dezember, Samstag

    Zeit Temperatur Niederschläge Wind Luftdruck Luftfeuchtigkeit
    00:00 +1°C° 0 mm 1 m/S 738 mmHg 88%
    01:00 +1°C° 0 mm 1 m/S 737 mmHg 88%
    02:00 +1°C° 0 mm 1 m/S 737 mmHg 88%
    03:00 +1°C° 0 mm 1 m/S 737 mmHg 87%
    04:00 +1°C° 0 mm 1 m/S 737 mmHg 87%
    05:00 +1°C° 0 mm 1 m/S 737 mmHg 87%
    06:00 +1°C° 0 mm 1 m/S 737 mmHg 86%
    07:00 +1°C° 0 mm 1 m/S 737 mmHg 86%
    08:00 -1°C° 0 mm 2 m/S 738 mmHg 84%
    09:00 +1°C° 0 mm 2 m/S 738 mmHg 82%
    10:00 +1°C° 0 mm 2 m/S 739 mmHg 79%
    11:00 0°C° 0 mm 3 m/S 739 mmHg 78%
    12:00 +1°C° 0 mm 3 m/S 740 mmHg 77%
    13:00 +1°C° 0 mm 3 m/S 740 mmHg 75%
    14:00 0°C° 0 mm 3 m/S 740 mmHg 79%
    15:00 -1°C° 0 mm 3 m/S 740 mmHg 84%
    16:00 -1°C° 0 mm 2 m/S 741 mmHg 88%
    17:00 -1°C° 0 mm 3 m/S 741 mmHg 89%
    18:00 -2°C° 0 mm 3 m/S 742 mmHg 91%
    19:00 -2°C° 0 mm 3 m/S 742 mmHg 92%
    20:00 -2°C° 0 mm 3 m/S 742 mmHg 92%
    21:00 -2°C° 0 mm 3 m/S 743 mmHg 93%
    22:00 -2°C° 0 mm 3 m/S 743 mmHg 93%
    23:00 -2°C° 0 mm 3 m/S 743 mmHg 93%
    Mehr zeigen